FW1003 Weather Reports


Display with metric or nautical units.
time (UTC)temp
F
wind
direction
speed
MPH
gust
MPH
rain 1hr
in
rain 24hr
in
rain mn
in
humidity
%
barometer
mb
20260902083007 92 61 1.0 8.0 0.00 0.00 0.00 57 1013.0
20260902081503 92 172 1.0 4.0 0.00 0.00 0.00 58 1013.1
20260902080002 92 126 1.0 5.0 0.00 0.00 0.00 59 1013.1
20260902074605 92 250 1.0 5.0 0.00 0.00 0.00 59 1013.1
20260902073054 91 246 1.0 4.0 0.00 0.00 0.00 60 1013.3
20260902071552 90 80 1.0 4.0 0.00 0.00 0.00 60 1013.2
20260902070049 89 293 1.0 3.0 0.00 0.00 0.00 61 1013.2
20260902064546 89 318 1.0 4.0 0.00 0.00 0.00 62 1013.1
20260902063045 89 333 1.0 3.0 0.00 0.00 0.00 62 1013.1
20260902061643 89 331 1.0 4.0 0.00 0.00 0.00 61 1013.0
20260902060049 88 301 2.0 6.0 0.00 0.00 0.00 63 1013.0
20260902054548 88 140 0.0 3.0 0.00 0.00 0.00 64 1013.0
20260902053033 87 12 0.0 3.0 0.00 0.00 0.00 64 1013.1
20260902051528 85 304 0.0 2.0 0.00 0.00 0.00 66 1013.1
20260902050026 84 304 0.0 2.0 0.00 0.00 0.00 67 1013.1
20260902044519 82 304 0.0 2.0 0.00 0.00 0.00 68 1012.9
20260902043014 81 303 0.0 2.0 0.00 0.00 0.00 70 1012.9
20260902041509 80 304 0.0 3.0 0.00 0.00 0.00 71 1012.8
20260902040007 79 303 1.0 3.0 0.00 0.00 0.00 72 1012.8
20260902034503 78 302 1.0 3.0 0.00 0.00 0.00 73 1012.7
20260902033100 78 302 0.0 2.0 0.00 0.00 0.00 73 1012.6
20260902031555 77 302 0.0 2.0 0.00 0.00 0.00 74 1012.8
20260902030054 77 302 0.0 2.0 0.00 0.00 0.00 74 1012.6
20260902024555 77 302 0.0 0.0 0.00 0.00 0.00 74 1012.7
20260902023107 77 302 0.0 2.0 0.00 0.00 0.00 74 1012.6
20260902021554 77 302 0.0 2.0 0.00 0.00 0.00 74 1012.5
20260902020053 77 302 0.0 2.0 0.00 0.00 0.00 74 1012.4
20260902014652 77 302 0.0 3.0 0.00 0.00 0.00 74 1012.4
20260902013055 77 302 1.0 2.0 0.00 0.00 0.00 74 1012.3
20260902011550 77 302 0.0 3.0 0.00 0.00 0.00 74 1012.3
20260902010050 77 302 0.0 2.0 0.00 0.00 0.00 74 1012.4
20260902004550 77 302 0.0 1.0 0.00 0.00 0.00 73 1012.5
20260902003046 78 302 0.0 2.0 0.00 0.00 0.00 72 1012.4
20260902001600 78 302 1.0 3.0 0.00 0.00 0.00 72 1012.5
20260902000045 79 299 1.0 3.0 0.00 0.00 0.00 72 1012.5
20260901234543 79 296 1.0 3.0 0.00 0.00 0.00 73 1012.5
20260901233040 79 296 0.0 0.0 0.00 0.00 0.00 72 1012.4
20260901231540 79 296 0.0 2.0 0.00 0.00 0.00 72 1012.5
20260901230039 79 296 1.0 3.0 0.00 0.00 0.00 72 1012.6
20260901224538 79 296 1.0 3.0 0.00 0.00 0.00 72 1012.5
20260901223045 79 296 1.0 3.0 0.00 0.00 0.00 73 1012.5
20260901221552 79 293 1.0 3.0 0.00 0.00 0.00 73 1012.3
20260901220039 79 293 0.0 1.0 0.00 0.00 0.00 73 1012.3
20260901214534 79 293 0.0 0.0 0.00 0.00 0.00 72 1012.4
20260901213032 80 293 0.0 0.0 0.00 0.00 0.00 71 1012.5
20260901211530 80 293 0.0 2.0 0.00 0.00 0.00 71 1012.5
20260901210028 80 293 0.0 1.0 0.00 0.00 0.00 71 1012.5
20260901204527 81 293 0.0 1.0 0.00 0.00 0.00 71 1012.5
20260901203028 81 293 0.0 3.0 0.00 0.00 0.00 71 1012.5
20260901201528 81 293 0.0 2.0 0.00 0.00 0.00 70 1012.6
20260901200026 82 292 0.0 1.0 0.00 0.00 0.00 70 1012.5
20260901194527 82 292 0.0 5.0 0.00 0.00 0.00 70 1012.5
20260901193026 82 319 0.0 6.0 0.00 0.00 0.00 69 1012.6
20260901191547 82 306 1.0 4.0 0.00 0.00 0.00 69 1012.5
20260901190024 82 321 2.0 4.0 0.00 0.00 0.00 69 1012.5
20260901184524 83 321 2.0 5.0 0.00 0.00 0.00 68 1012.9
20260901183023 83 327 1.0 5.0 0.00 0.00 0.00 68 1013.0
20260901181623 83 319 1.0 4.0 0.00 0.00 0.00 67 1013.1
20260901180021 83 314 3.0 6.0 0.00 0.00 0.00 67 1012.9
20260901174522 84 327 2.0 5.0 0.00 0.00 0.00 67 1012.8
20260901173025 84 323 3.0 6.0 0.00 0.00 0.00 66 1012.7
20260901171524 84 327 2.0 6.0 0.00 0.00 0.00 66 1012.6
20260901170020 84 312 2.0 9.0 0.00 0.00 0.00 66 1012.5
20260901164535 84 309 2.0 5.0 0.00 0.00 0.00 66 1012.4
20260901163018 84 313 2.0 5.0 0.00 0.00 0.00 66 1012.4
20260901161537 85 302 2.0 6.0 0.00 0.00 0.00 65 1012.3
20260901160016 85 5 3.0 8.0 0.00 0.00 0.00 64 1012.2
20260901154516 85 328 2.0 8.0 0.00 0.00 0.00 63 1012.3
20260901153016 86 313 1.0 10.0 0.00 0.00 0.00 63 1012.2
20260901151516 86 312 1.0 6.0 0.00 0.00 0.00 62 1012.3
20260901150016 87 329 4.0 9.0 0.00 0.00 0.00 61 1012.4
20260901144514 87 317 3.0 9.0 0.00 0.00 0.00 61 1012.3
20260901143014 88 320 3.0 6.0 0.00 0.00 0.00 60 1012.2
20260901141514 88 331 5.0 9.0 0.00 0.00 0.00 58 1012.2
20260901140011 90 317 1.0 6.0 0.00 0.00 0.00 57 1012.3
20260901134511 90 339 3.0 9.0 0.00 0.00 0.00 57 1012.3
20260901133011 91 323 3.0 9.0 0.00 0.00 0.00 56 1012.4
20260901131510 91 337 1.0 9.0 0.00 0.00 0.00 56 1012.3
20260901130017 91 332 3.0 10.0 0.00 0.00 0.00 54 1012.4
20260901124515 92 322 2.0 10.0 0.00 0.00 0.00 55 1012.5
20260901123008 92 328 3.0 8.0 0.00 0.00 0.00 54 1012.5
20260901121607 92 67 2.0 8.0 0.00 0.00 0.00 53 1012.5
20260901120006 91 323 3.0 8.0 0.00 0.00 0.00 54 1012.7
20260901114509 92 306 3.0 11.0 0.00 0.00 0.00 54 1012.5
20260901113005 93 17 3.0 8.0 0.00 0.00 0.00 51 1012.6
20260901111505 92 92 2.0 9.0 0.00 0.00 0.00 52 1012.7
20260901110104 92 265 2.0 6.0 0.00 0.00 0.00 52 1012.8
20260901104506 92 101 1.0 6.0 0.00 0.00 0.00 53 1012.7
20260901103001 93 235 3.0 9.0 0.00 0.00 0.00 53 1012.8
20260901101605 93 313 2.0 8.0 0.00 0.00 0.00 51 1012.8
20260901100105 93 248 2.0 6.0 0.00 0.00 0.00 53 1012.9
20260901094558 92 54 1.0 7.0 0.00 0.00 0.00 54 1012.8
20260901093102 92 28 2.0 9.0 0.00 0.00 0.00 54 1012.9
20260901091555 92 128 3.0 6.0 0.00 0.00 0.00 54 1012.9
20260901090054 91 92 2.0 8.0 0.00 0.00 0.00 55 1013.0
20260901084553 91 190 2.0 7.0 0.00 0.00 0.00 57 1012.9